カタログに戻る

STARLINK-30388

運用中通信VLEO
NORAD 57784·PAYLOAD·🇺🇸 United States

打ち上げ Sep 4, 2023 から Cape Canaveral Space Force Station

Loading…

次のパス (今後24時間)

TLE

最新Source: CelesTrak SupGP

元期: Sep 14, 2026, 21:46 UTC

1 57784C 23134P   26257.90743056 -.00080404  00000+0 -29092-2 0  2578
2 57784  42.9995 205.6799 0001477 249.7568 252.1445 15.27652888    15

AllMySatでSTARLINK-30388をリアルタイム追跡

Download on the App Store